DW4360 Weather Reports


Display with metric or nautical units.
time (UTC)temp
F
wind
direction
speed
MPH
gust
MPH
rain 1hr
in
rain 24hr
in
rain mn
in
humidity
%
barometer
mb
20260904141418 54 170 0.0 0.0 0.00 0.00 0.07 93 1010.8
20260904140417 54 170 0.0 0.0 0.00 0.00 0.07 93 1010.8
20260904134415 54 170 0.0 0.0 0.00 0.00 0.07 93 1010.6
20260904133414 54 170 0.0 0.0 0.00 0.00 0.07 93 1010.5
20260904132413 54 170 0.0 0.0 0.00 0.00 0.07 93 1010.4
20260904131412 54 170 0.0 0.0 0.00 0.00 0.07 93 1010.5
20260904130411 55 170 0.0 0.0 0.00 0.00 0.07 93 1010.5
20260904125410 54 170 0.0 0.0 0.00 0.00 0.07 93 1010.3
20260904124409 54 170 0.0 0.0 0.00 0.00 0.07 92 1010.2
20260904123408 54 170 0.0 0.0 0.00 0.00 0.06 92 1010.1
20260904122407 55 170 0.0 0.0 0.00 0.00 0.06 92 1010.1
20260904121406 55 170 0.0 0.0 0.00 0.00 0.06 92 1009.9
20260904120405 55 170 0.0 0.0 0.00 0.00 0.05 92 1009.9
20260904115404 55 170 0.0 0.0 0.00 0.00 0.05 92 1009.9
20260904114403 55 170 0.0 0.0 0.00 0.00 0.05 92 1009.9
20260904113402 55 170 0.0 0.0 0.00 0.00 0.04 92 1009.7
20260904112401 55 169 0.0 0.0 0.00 0.00 0.04 92 1009.6
20260904110359 55 169 0.0 0.0 0.00 0.00 0.03 92 1009.6
20260904105358 55 169 0.0 0.0 0.00 0.00 0.03 92 1009.6
20260904104357 55 169 0.0 0.0 0.00 0.00 0.03 91 1009.6
20260904103356 55 169 0.0 0.0 0.00 0.00 0.03 91 1009.5
20260904102355 55 169 0.0 0.0 0.00 0.00 0.03 91 1009.4
20260904101354 55 169 0.0 0.0 0.00 0.00 0.03 91 1009.3
20260904100353 55 169 0.0 0.0 0.00 0.00 0.03 91 1009.3
20260904095352 55 169 0.0 0.0 0.00 0.00 0.03 91 1009.2
20260904094350 55 169 0.0 0.0 0.00 0.00 0.03 91 1009.2
20260904093349 56 169 0.0 0.0 0.00 0.00 0.03 91 1009.2
20260904092349 56 169 0.0 0.0 0.00 0.00 0.03 91 1009.2
20260904090347 56 169 0.0 0.0 0.00 0.00 0.03 91 1009.1
20260904085346 56 169 0.0 0.0 0.00 0.00 0.03 90 1009.1
20260904084344 56 169 0.0 0.0 0.00 0.00 0.03 90 1009.0
20260904083344 56 169 0.0 0.0 0.00 0.00 0.03 90 1009.1
20260904081341 56 169 0.0 0.0 0.00 0.00 0.03 90 1009.0
20260904080341 56 169 0.0 0.0 0.00 0.00 0.03 90 1009.1
20260904074339 56 169 0.0 0.0 0.00 0.00 0.03 90 1009.1
20260904073337 56 169 0.0 0.0 0.00 0.00 0.03 90 1009.1
20260904072336 56 169 0.0 0.0 0.00 0.00 0.03 90 1009.1
20260904071336 56 169 0.0 0.0 0.00 0.00 0.03 90 1009.1
20260904070334 56 169 0.0 0.0 0.00 0.00 0.03 90 1009.0
20260904065334 56 169 0.0 0.0 0.00 0.00 0.03 90 1009.0
20260904063332 56 169 0.0 0.0 0.00 0.00 0.03 89 1009.1
20260904062331 56 169 0.0 0.0 0.00 0.00 0.03 89 1008.9
20260904061330 56 169 0.0 0.0 0.00 0.00 0.03 90 1008.9
20260904060328 56 169 0.0 0.0 0.00 0.00 0.03 90 1008.9
20260904055328 56 169 0.0 0.0 0.00 0.00 0.03 90 1009.0
20260904054327 56 169 0.0 0.0 0.00 0.00 0.03 90 1009.1
20260904053325 56 169 0.0 0.0 0.00 0.00 0.03 89 1009.1
20260904052324 56 169 0.0 0.0 0.00 0.00 0.03 89 1009.1
20260904051323 56 169 0.0 0.0 0.00 0.00 0.03 88 1009.1
20260904050322 56 169 0.0 0.0 0.00 0.00 0.03 88 1009.2
20260904044321 57 169 0.0 0.0 0.00 0.00 0.03 88 1009.2
20260904043319 57 169 0.0 0.0 0.00 0.00 0.03 87 1009.2
20260904042318 57 169 0.0 0.0 0.00 0.00 0.03 87 1009.3
20260904041317 57 169 0.0 0.0 0.00 0.00 0.03 87 1009.1
20260904040316 57 169 0.0 0.0 0.00 0.00 0.03 86 1009.2
20260904035315 57 169 0.0 0.0 0.00 0.00 0.03 86 1009.2
20260904034314 58 169 0.0 0.0 0.00 0.00 0.03 86 1009.1
20260904032312 58 169 0.0 0.0 0.00 0.00 0.03 85 1008.9
20260904031311 58 169 0.0 0.0 0.00 0.00 0.03 83 1008.8
20260904030310 59 169 0.0 0.0 0.00 0.00 0.03 82 1008.6
20260904025309 59 169 0.0 0.0 0.00 0.00 0.03 81 1008.6
20260904024308 59 169 0.0 0.0 0.00 0.00 0.03 81 1008.5
20260904023307 60 169 0.0 0.0 0.00 0.00 0.03 81 1008.5
20260904020304 60 169 0.0 0.0 0.00 0.00 0.03 80 1008.5
20260904014302 61 170 5.0 0.0 0.00 0.00 0.03 78 1008.6
20260904012300 60 190 0.0 0.0 0.00 0.00 0.03 79 1008.6
20260904011259 60 198 0.0 0.0 0.00 0.00 0.03 80 1008.7
20260904010258 60 184 0.0 0.0 0.00 0.00 0.03 78 1008.6
20260904005257 60 184 0.0 0.0 0.00 0.00 0.03 74 1008.5
20260904004256 61 182 0.0 0.0 0.00 0.00 0.03 74 1008.5
20260904003255 61 232 0.0 0.0 0.00 0.00 0.03 73 1008.5
20260904002254 61 262 0.0 0.0 0.00 0.00 0.03 74 1008.6
20260904001253 61 203 0.0 0.0 0.00 0.00 0.03 78 1008.6
20260904000252 60 202 1.0 0.0 0.00 0.00 0.03 80 1008.7
20260903235251 59 202 0.0 0.0 0.00 0.00 0.03 81 1008.7
20260903234250 59 202 0.0 0.0 0.00 0.00 0.03 82 1008.8
20260903233249 59 202 0.0 0.0 0.00 0.00 0.03 81 1008.8
20260903232248 59 226 0.0 0.0 0.00 0.00 0.03 80 1008.8
20260903231247 60 226 0.0 0.0 0.00 0.00 0.03 78 1009.1
20260903230245 60 216 2.0 0.0 0.00 0.00 0.03 77 1009.2
20260903225245 61 206 3.0 0.0 0.00 0.00 0.03 75 1009.2
20260903224244 62 194 0.0 0.0 0.00 0.00 0.03 73 1009.2
20260903223243 62 244 0.0 0.0 0.00 0.00 0.03 71 1009.0
20260903222242 63 232 0.0 0.0 0.00 0.00 0.03 70 1009.0
20260903221240 63 225 6.0 0.0 0.00 0.00 0.03 71 1008.9
20260903220240 64 250 3.0 0.0 0.00 0.00 0.03 69 1008.9
20260903215239 64 181 4.0 0.0 0.00 0.00 0.03 70 1008.9
20260903213237 63 226 0.0 0.0 0.00 0.00 0.03 70 1008.9
20260903212236 63 286 0.0 0.0 0.00 0.00 0.03 70 1009.1
20260903211234 63 234 3.0 0.0 0.00 0.00 0.03 69 1009.1
20260903210234 63 277 2.0 0.0 0.00 0.00 0.03 73 1009.0
20260903205233 63 195 5.0 0.0 0.00 0.00 0.03 74 1008.9
20260903204231 63 223 1.0 0.0 0.00 0.00 0.03 72 1008.9
20260903202230 63 192 4.0 0.0 0.00 0.00 0.03 75 1008.9
20260903200228 64 252 4.0 0.0 0.00 0.00 0.03 72 1008.9
20260903195227 63 242 0.0 0.0 0.00 0.00 0.03 75 1008.9
20260903194225 63 180 4.0 0.0 0.00 0.00 0.03 75 1008.9
20260903192223 62 279 2.0 0.0 0.00 0.00 0.03 77 1009.0
20260903191222 62 194 2.0 0.0 0.00 0.00 0.03 79 1009.1
20260903190221 61 229 0.0 0.0 0.00 0.00 0.03 84 1009.1
20260903185220 60 217 5.0 0.0 0.00 0.00 0.03 84 1009.1
20260903184219 60 265 0.0 0.0 0.00 0.00 0.03 84 1009.2
20260903182218 61 219 3.0 0.0 0.00 0.00 0.03 84 1009.1
20260903180215 62 209 0.0 0.0 0.00 0.00 0.03 86 1009.0
20260903175214 62 229 0.0 0.0 0.00 0.00 0.03 84 1009.0
20260903174213 63 180 0.0 0.0 0.00 0.00 0.03 82 1009.0
20260903172211 61 180 0.0 0.0 0.00 0.00 0.03 92 1009.0
20260903170209 59 192 0.0 0.0 0.00 0.00 0.03 94 1009.1
20260903165208 58 209 0.0 0.0 0.00 0.00 0.03 94 1009.3
20260903164207 57 209 0.0 0.0 0.00 0.00 0.03 94 1009.4
20260903163206 56 209 0.0 0.0 0.00 0.00 0.03 94 1009.4
20260903162205 56 209 0.0 0.0 0.00 0.00 0.03 93 1009.3
20260903161204 56 209 0.0 0.0 0.00 0.00 0.03 93 1009.3
20260903160203 56 209 0.0 0.0 0.00 0.00 0.02 93 1009.4
20260903155202 56 221 0.0 0.0 0.00 0.00 0.01 93 1009.3
20260903154201 56 196 0.0 0.0 0.00 0.00 0.01 93 1009.3
20260903153200 56 194 4.0 0.0 0.00 0.00 0.41 93 1009.2
20260903152159 55 192 0.0 0.0 0.00 0.00 0.41 93 1009.2
20260903145156 55 223 3.0 0.0 0.00 0.00 0.39 93 1009.0
20260903144155 55 198 1.0 0.0 0.00 0.00 0.38 93 1009.0
20260903143154 55 205 0.0 0.0 0.00 0.00 0.37 93 1008.9
20260903142153 55 194 0.0 0.0 0.00 0.00 0.36 93 1008.8